Location: Unspecified
(38.9820°N, 94.4650°W)
Time: 19:09:10
(UTC-05:00)

HST - Visible Passes

Search period start: 29 August 2014 00:00
Search period end: 08 September 2014 00:00
Orbit: 547 x 551 km, 28.5° (Epoch: 29 August)

Date Brightness Start Highest point End Pass type
(mag) Time Alt. Az. Time Alt. Az. Time Alt. Az.
06 Sep 3.1 20:19:32 10° SSE 20:19:42 10° SSE 20:19:52 10° SSE visible
07 Sep 3.0 20:10:54 10° S 20:12:35 12° SSE 20:14:17 10° SE visible
07 Sep 3.3 21:50:22 10° SW 21:50:51 12° SW 21:50:51 12° SW visible
